BAW6JT LGSR-EGLL

Flight info

Callsign BAW6JT
Flight time N/A
Altitude 36000
Route MADEX UL53 OLGAT DCT AIOSA DCT IPKIS DCT ROTAR DCT SAFFA DCT ELMUR DCT RIPUS DCT DITON DCT HOC DCT LUL DCT RLP DCT ROTSI DCT KOTUN DCT NINAL DCT ABNUR DCT DIMAL DCT ALESO
Aircraft A320/M-SDE3FGHIRWY/LB1

Departure

Time 2026-04-23 06:11
Airport Santorini International Airport (LGSR)

Arrival

Time N/A
Airport London Heathrow Airport (EGLL)
Time Latitude Longitude Altitude Speed Heading
2026-04-23 05:50 36.40381 25.47362 93 ft 0 kts 249°
2026-04-23 06:04 36.40382 25.47362 90 ft 0 kts 249°
2026-04-23 06:04 36.40388 25.47384 90 ft 2 kts 249°
2026-04-23 06:04 36.40399 25.47408 90 ft 4 kts 205°
2026-04-23 06:04 36.40421 25.47409 90 ft 3 kts 159°
2026-04-23 06:05 36.40422 25.47409 90 ft 3 kts 159°
2026-04-23 06:05 36.40429 25.47406 90 ft 0 kts 159°
2026-04-23 06:07 36.40426 25.47407 90 ft 3 kts 159°
2026-04-23 06:07 36.40345 25.47445 91 ft 22 kts 159°
2026-04-23 06:07 36.40151 25.47538 90 ft 28 kts 150°
2026-04-23 06:08 36.40133 25.47618 90 ft 8 kts 95°
2026-04-23 06:08 36.40063 25.47677 88 ft 20 kts 158°
2026-04-23 06:08 36.39888 25.47765 86 ft 34 kts 158°
2026-04-23 06:08 36.39620 25.47894 70 ft 48 kts 159°
2026-04-23 06:09 36.39369 25.48011 64 ft 33 kts 160°
2026-04-23 06:09 36.39157 25.48107 56 ft 27 kts 160°
2026-04-23 06:09 36.39015 25.48197 49 ft 15 kts 115°
2026-04-23 06:09 36.39049 25.48307 52 ft 14 kts 26°
2026-04-23 06:10 36.39140 25.48284 57 ft 14 kts 339°
2026-04-23 06:10 36.39332 25.48190 64 ft 65 kts 339°
2026-04-23 06:10 36.39989 25.47880 84 ft 133 kts 339°
2026-04-23 06:10 36.41016 25.47394 123 ft 179 kts 340°
2026-04-23 06:11 36.42230 25.46844 675 ft 189 kts 341°
2026-04-23 06:11 36.43555 25.46222 1123 ft 221 kts 340°
2026-04-23 06:11 36.45023 25.45525 2033 ft 224 kts 340°
2026-04-23 06:11 36.46506 25.44827 2875 ft 236 kts 340°
2026-04-23 06:12 36.48121 25.44100 3263 ft 256 kts 340°
2026-04-23 06:12 36.49827 25.43350 3991 ft 262 kts 340°
2026-04-23 06:12 36.53306 25.41895 5625 ft 268 kts 340°
2026-04-23 06:13 36.55096 25.41199 6417 ft 271 kts 340°
2026-04-23 06:13 36.56906 25.40529 7198 ft 273 kts 340°
2026-04-23 06:13 36.58745 25.39862 7939 ft 277 kts 340°
2026-04-23 06:13 36.60608 25.39195 8698 ft 280 kts 340°
2026-04-23 06:14 36.62491 25.38539 9431 ft 282 kts 341°
2026-04-23 06:14 36.64453 25.38150 10125 ft 289 kts 348°
2026-04-23 06:14 36.66322 25.37390 10808 ft 280 kts 321°
2026-04-23 06:14 36.67728 25.35666 11082 ft 294 kts 305°
2026-04-23 06:15 36.68969 25.33577 11267 ft 312 kts 302°
2026-04-23 06:15 36.70214 25.31319 11791 ft 319 kts 301°
2026-04-23 06:15 36.71461 25.29020 12463 ft 321 kts 301°
2026-04-23 06:15 36.72717 25.26713 13112 ft 323 kts 301°
2026-04-23 06:16 36.73988 25.24396 13733 ft 325 kts 302°
2026-04-23 06:16 36.75279 25.22063 14316 ft 328 kts 302°
2026-04-23 06:16 36.76585 25.19717 14872 ft 331 kts 302°
2026-04-23 06:16 36.77907 25.17356 15425 ft 334 kts 302°
2026-04-23 06:17 36.79219 25.15002 15962 ft 336 kts 302°
2026-04-23 06:17 36.80558 25.12600 16498 ft 339 kts 302°
2026-04-23 06:17 36.81912 25.10181 17042 ft 341 kts 302°
2026-04-23 06:17 36.83277 25.07749 17574 ft 344 kts 302°
2026-04-23 06:18 36.84650 25.05297 18113 ft 346 kts 302°
2026-04-23 06:18 36.86030 25.02822 18642 ft 348 kts 301°
2026-04-23 06:18 36.87414 25.00330 19177 ft 351 kts 301°
2026-04-23 06:18 36.88809 24.97813 19702 ft 353 kts 301°
2026-04-23 06:19 36.90193 24.95315 20245 ft 355 kts 301°
2026-04-23 06:19 36.91603 24.92769 20743 ft 358 kts 301°
2026-04-23 06:19 36.93022 24.90201 21240 ft 360 kts 301°
2026-04-23 06:19 36.94452 24.87620 21727 ft 362 kts 301°
2026-04-23 06:20 36.95887 24.85021 22174 ft 364 kts 301°
2026-04-23 06:20 36.97331 24.82409 22620 ft 366 kts 301°
2026-04-23 06:20 36.98787 24.79781 23048 ft 369 kts 301°
2026-04-23 06:20 37.00250 24.77137 23468 ft 371 kts 301°
2026-04-23 06:21 37.01716 24.74473 23861 ft 373 kts 301°
2026-04-23 06:21 37.03192 24.71795 24285 ft 374 kts 302°
2026-04-23 06:21 37.04652 24.69149 24697 ft 375 kts 302°
2026-04-23 06:21 37.06134 24.66450 25085 ft 377 kts 302°
2026-04-23 06:22 37.07623 24.63742 25458 ft 378 kts 302°
2026-04-23 06:22 37.09118 24.61027 25825 ft 379 kts 302°
2026-04-23 06:22 37.10622 24.58299 26160 ft 381 kts 302°
2026-04-23 06:22 37.12133 24.55563 26494 ft 383 kts 302°
2026-04-23 06:23 37.13648 24.52810 26832 ft 384 kts 301°
2026-04-23 06:23 37.15163 24.50041 27167 ft 386 kts 301°
2026-04-23 06:23 37.16660 24.47297 27469 ft 388 kts 301°
2026-04-23 06:23 37.18184 24.44502 27813 ft 389 kts 301°
2026-04-23 06:24 37.19711 24.41701 28139 ft 390 kts 301°
2026-04-23 06:24 37.21244 24.38885 28459 ft 391 kts 301°
2026-04-23 06:24 37.22734 24.36044 28869 ft 389 kts 300°
2026-04-23 06:24 37.24181 24.33186 29294 ft 387 kts 299°
2026-04-23 06:25 37.25601 24.30332 29731 ft 385 kts 298°
2026-04-23 06:25 37.27011 24.27486 30145 ft 383 kts 298°
2026-04-23 06:25 37.28399 24.24692 30549 ft 382 kts 298°
2026-04-23 06:25 37.29806 24.21872 30954 ft 380 kts 298°
2026-04-23 06:26 37.31214 24.19064 31337 ft 379 kts 298°
2026-04-23 06:26 37.32619 24.16266 31712 ft 378 kts 298°
2026-04-23 06:26 37.34022 24.13477 32091 ft 377 kts 298°
2026-04-23 06:26 37.35418 24.10695 32466 ft 376 kts 298°
2026-04-23 06:27 37.36811 24.07918 32826 ft 375 kts 298°
2026-04-23 06:27 37.38198 24.05148 33180 ft 374 kts 298°
2026-04-23 06:27 37.39564 24.02413 33514 ft 374 kts 298°
2026-04-23 06:27 37.40942 23.99651 33868 ft 373 kts 298°
2026-04-23 06:28 37.42315 23.96894 34190 ft 371 kts 298°
2026-04-23 06:28 37.43683 23.94147 34489 ft 371 kts 298°
2026-04-23 06:28 37.45053 23.91402 34773 ft 370 kts 298°
2026-04-23 06:28 37.46419 23.88659 35057 ft 369 kts 298°
2026-04-23 06:29 37.47781 23.85921 35335 ft 368 kts 298°
2026-04-23 06:29 37.49136 23.83190 35594 ft 368 kts 298°
2026-04-23 06:29 37.50490 23.80461 35838 ft 367 kts 298°
2026-04-23 06:29 37.51825 23.77771 36010 ft 367 kts 298°
2026-04-23 06:30 37.54558 23.72250 36050 ft 376 kts 298°
2026-04-23 06:30 37.57342 23.66630 36040 ft 379 kts 298°
2026-04-23 06:31 37.60126 23.60994 36051 ft 379 kts 298°
2026-04-23 06:31 37.62896 23.55372 36043 ft 380 kts 298°
2026-04-23 06:32 37.65680 23.49713 36032 ft 380 kts 298°
2026-04-23 06:32 37.68462 23.44054 36032 ft 379 kts 298°
2026-04-23 06:33 37.71238 23.38385 36034 ft 379 kts 298°
2026-04-23 06:33 37.73996 23.32751 36034 ft 380 kts 298°
2026-04-23 06:34 37.76774 23.27072 36032 ft 380 kts 298°
2026-04-23 06:34 37.79549 23.21383 36033 ft 380 kts 298°
2026-04-23 06:35 37.82326 23.15687 36032 ft 380 kts 298°
2026-04-23 06:35 37.85097 23.09985 36035 ft 381 kts 298°
2026-04-23 06:36 37.87852 23.04315 36037 ft 381 kts 298°
2026-04-23 06:36 37.90624 22.98597 36039 ft 381 kts 298°
2026-04-23 06:37 37.93398 22.92883 36052 ft 381 kts 299°
2026-04-23 06:37 37.96378 22.87317 36043 ft 382 kts 301°
2026-04-23 06:38 37.99475 22.81835 36045 ft 382 kts 301°
2026-04-23 06:38 38.02527 22.76372 36056 ft 382 kts 301°
2026-04-23 06:39 38.05565 22.70853 36045 ft 381 kts 301°
2026-04-23 06:39 38.08590 22.65333 36051 ft 381 kts 300°
2026-04-23 06:40 38.11606 22.59806 36038 ft 380 kts 300°
2026-04-23 06:40 38.14596 22.54320 36038 ft 380 kts 301°
2026-04-23 06:41 38.17613 22.48800 36037 ft 380 kts 301°
2026-04-23 06:41 38.20628 22.43276 36036 ft 380 kts 301°
2026-04-23 06:42 38.23635 22.37746 36035 ft 380 kts 301°
2026-04-23 06:42 38.26620 22.32251 36033 ft 380 kts 301°
2026-04-23 06:43 38.29619 22.26712 36032 ft 380 kts 300°
2026-04-23 06:43 38.32613 22.21166 36031 ft 380 kts 300°
2026-04-23 06:44 38.35612 22.15611 36029 ft 381 kts 300°
2026-04-23 06:44 38.38613 22.10055 36027 ft 380 kts 300°
2026-04-23 06:45 38.41585 22.04535 36022 ft 379 kts 300°
2026-04-23 06:45 38.44569 21.98980 36019 ft 380 kts 300°
2026-04-23 06:46 38.47548 21.93418 36016 ft 380 kts 300°
2026-04-23 06:46 38.50518 21.87847 36016 ft 380 kts 300°
2026-04-23 06:47 38.53475 21.82324 36014 ft 379 kts 300°
2026-04-23 06:47 38.56445 21.76758 36012 ft 379 kts 300°
2026-04-23 06:48 38.59406 21.71188 36012 ft 379 kts 300°
2026-04-23 06:48 38.62367 21.65617 36013 ft 379 kts 300°
2026-04-23 06:49 38.65307 21.60088 36009 ft 378 kts 300°
2026-04-23 06:49 38.68255 21.54505 36012 ft 379 kts 300°
2026-04-23 06:50 38.71201 21.48917 36012 ft 378 kts 300°
2026-04-23 06:50 38.74150 21.43342 36011 ft 378 kts 300°
2026-04-23 06:51 38.77099 21.37764 36010 ft 378 kts 300°
2026-04-23 06:51 38.80018 21.32215 36011 ft 378 kts 300°
2026-04-23 06:52 38.82944 21.26623 36014 ft 377 kts 299°
2026-04-23 06:52 38.85870 21.21037 36017 ft 377 kts 300°
2026-04-23 06:53 38.88776 21.15493 36017 ft 377 kts 300°
2026-04-23 06:53 38.91700 21.09902 36016 ft 377 kts 300°
2026-04-23 06:54 38.94619 21.04309 36016 ft 377 kts 300°
2026-04-23 06:54 38.97531 20.98711 36016 ft 377 kts 300°
2026-04-23 06:55 39.00423 20.93144 36016 ft 377 kts 300°
2026-04-23 06:55 39.03330 20.87538 36017 ft 377 kts 300°
2026-04-23 06:56 39.06237 20.81921 36018 ft 377 kts 300°
2026-04-23 06:56 39.09138 20.76301 36018 ft 377 kts 300°
2026-04-23 06:57 39.12036 20.70677 36017 ft 377 kts 300°
2026-04-23 06:57 39.14910 20.65093 36016 ft 377 kts 300°
2026-04-23 06:58 39.17809 20.59466 36011 ft 377 kts 300°
2026-04-23 06:58 39.20704 20.53826 36012 ft 377 kts 299°
2026-04-23 06:59 39.23592 20.48181 36014 ft 377 kts 299°
2026-04-23 06:59 39.26477 20.42523 36015 ft 377 kts 299°
2026-04-23 07:00 39.29347 20.36912 36010 ft 376 kts 300°
2026-04-23 07:00 39.32230 20.31263 36009 ft 377 kts 299°
2026-04-23 07:01 39.35108 20.25600 36009 ft 377 kts 299°
2026-04-23 07:01 39.37985 20.19932 36006 ft 377 kts 299°
2026-04-23 07:02 39.40838 20.14294 36004 ft 377 kts 299°
2026-04-23 07:02 39.43712 20.08613 36000 ft 378 kts 300°
2026-04-23 07:03 39.47251 20.03507 35998 ft 384 kts 309°
2026-04-23 07:03 39.50993 19.98573 36002 ft 384 kts 309°
2026-04-23 07:04 39.54706 19.93674 35995 ft 383 kts 309°
2026-04-23 07:04 39.58436 19.88746 35993 ft 383 kts 309°
2026-04-23 07:05 39.62160 19.83807 35984 ft 383 kts 309°
2026-04-23 07:05 39.65880 19.78864 35974 ft 383 kts 309°
2026-04-23 07:06 39.69606 19.73912 35974 ft 384 kts 309°
2026-04-23 07:06 39.73308 19.68981 35981 ft 384 kts 309°
2026-04-23 07:07 39.77035 19.64009 35984 ft 384 kts 309°
2026-04-23 07:07 39.80762 19.59039 35988 ft 384 kts 309°
2026-04-23 07:08 39.84478 19.54062 35992 ft 383 kts 309°
2026-04-23 07:08 39.88163 19.49117 35995 ft 383 kts 309°
2026-04-23 07:09 39.91871 19.44134 36002 ft 382 kts 309°
2026-04-23 07:09 39.95568 19.39155 36010 ft 383 kts 309°
2026-04-23 07:10 39.99274 19.34169 36014 ft 383 kts 309°
2026-04-23 07:10 40.02951 19.29211 36017 ft 383 kts 309°
2026-04-23 07:11 40.06655 19.24209 36019 ft 384 kts 309°
2026-04-23 07:12 40.12222 19.16677 36026 ft 384 kts 309°
2026-04-23 07:12 40.15925 19.11642 36048 ft 384 kts 309°
2026-04-23 07:13 40.19606 19.06635 36049 ft 384 kts 310°
2026-04-23 07:13 40.23310 19.01584 36063 ft 385 kts 310°
2026-04-23 07:14 40.27410 18.97026 36060 ft 389 kts 317°
2026-04-23 07:14 40.31698 18.92713 36066 ft 389 kts 317°
2026-04-23 07:15 40.35955 18.88426 36070 ft 388 kts 317°
2026-04-23 07:15 40.40233 18.84098 36077 ft 388 kts 317°
2026-04-23 07:16 40.44506 18.79757 36084 ft 388 kts 317°
2026-04-23 07:16 40.48778 18.75412 36089 ft 388 kts 317°
2026-04-23 07:17 40.53023 18.71100 36094 ft 388 kts 318°
2026-04-23 07:17 40.57299 18.66751 36098 ft 389 kts 318°
2026-04-23 07:18 40.61579 18.62389 36103 ft 389 kts 317°
2026-04-23 07:18 40.65860 18.58024 36108 ft 389 kts 318°
2026-04-23 07:19 40.70138 18.53643 36109 ft 389 kts 318°
2026-04-23 07:19 40.74382 18.49285 36108 ft 390 kts 318°
2026-04-23 07:20 40.78659 18.44890 36112 ft 390 kts 318°
2026-04-23 07:20 40.82929 18.40490 36118 ft 389 kts 318°
2026-04-23 07:21 40.87199 18.36095 36121 ft 389 kts 318°
2026-04-23 07:21 40.91442 18.31723 36119 ft 389 kts 318°
2026-04-23 07:22 40.95718 18.27318 36114 ft 390 kts 318°
2026-04-23 07:22 40.99989 18.22895 36120 ft 390 kts 318°
2026-04-23 07:23 41.04255 18.18460 36116 ft 390 kts 318°
2026-04-23 07:23 41.08499 18.14053 36124 ft 390 kts 318°
2026-04-23 07:24 41.12770 18.09605 36124 ft 391 kts 318°
2026-04-23 07:24 41.17039 18.05147 36120 ft 391 kts 318°
2026-04-23 07:25 41.21317 18.00680 36113 ft 391 kts 318°
2026-04-23 07:25 41.25594 17.96211 36123 ft 391 kts 319°
2026-04-23 07:26 41.29828 17.91773 36119 ft 390 kts 319°
2026-04-23 07:26 41.34085 17.87304 36118 ft 390 kts 319°
2026-04-23 07:27 41.38345 17.82833 36117 ft 390 kts 319°
2026-04-23 07:27 41.42603 17.78351 36118 ft 390 kts 319°
2026-04-23 07:28 41.46828 17.73884 36121 ft 391 kts 319°
2026-04-23 07:28 41.51091 17.69376 36123 ft 391 kts 319°
2026-04-23 07:29 41.55355 17.64862 36129 ft 391 kts 319°
2026-04-23 07:29 41.59620 17.60338 36134 ft 392 kts 319°
2026-04-23 07:30 41.63860 17.55833 36134 ft 392 kts 319°
2026-04-23 07:30 41.68136 17.51289 36132 ft 393 kts 319°
2026-04-23 07:31 41.72409 17.46731 36147 ft 393 kts 319°
2026-04-23 07:31 41.76676 17.42171 36146 ft 392 kts 319°
2026-04-23 07:32 41.80942 17.37612 36144 ft 392 kts 319°
2026-04-23 07:32 41.85204 17.33045 36143 ft 392 kts 319°
2026-04-23 07:33 41.89429 17.28505 36130 ft 392 kts 319°
2026-04-23 07:33 41.93677 17.23911 36136 ft 392 kts 318°
2026-04-23 07:34 41.97843 17.19193 36144 ft 391 kts 316°
2026-04-23 07:34 42.01932 17.14443 36133 ft 391 kts 317°
2026-04-23 07:35 42.06065 17.09655 36121 ft 393 kts 317°
2026-04-23 07:35 42.10216 17.04870 36120 ft 393 kts 318°
2026-04-23 07:36 42.14382 17.00081 36117 ft 394 kts 318°
2026-04-23 07:36 42.18517 16.95310 36119 ft 394 kts 317°
2026-04-23 07:37 42.22674 16.90497 36120 ft 394 kts 318°
2026-04-23 07:37 42.26834 16.85674 36127 ft 394 kts 318°
2026-04-23 07:38 42.30996 16.80847 36126 ft 394 kts 317°
2026-04-23 07:38 42.35156 16.76006 36138 ft 395 kts 317°
2026-04-23 07:39 42.39281 16.71191 36145 ft 394 kts 317°
2026-04-23 07:39 42.43432 16.66339 36146 ft 394 kts 317°
2026-04-23 07:40 42.47579 16.61476 36144 ft 395 kts 317°
2026-04-23 07:40 42.51029 16.57433 36145 ft 394 kts 317°
2026-04-23 07:41 42.55179 16.52569 36143 ft 394 kts 317°
2026-04-23 07:41 42.59999 16.46907 36143 ft 394 kts 317°
2026-04-23 07:42 42.63472 16.42816 36142 ft 395 kts 317°
2026-04-23 07:42 42.67587 16.37961 36142 ft 395 kts 317°
2026-04-23 07:43 42.71732 16.33060 36138 ft 395 kts 317°
2026-04-23 07:43 42.76549 16.27360 36128 ft 395 kts 318°
2026-04-23 07:44 42.80018 16.23238 36119 ft 395 kts 317°
2026-04-23 07:44 42.84134 16.18339 36111 ft 396 kts 318°
2026-04-23 07:45 42.88276 16.13404 36106 ft 396 kts 318°
2026-04-23 07:45 42.92427 16.08448 36184 ft 398 kts 318°
2026-04-23 07:46 42.96600 16.03460 36195 ft 399 kts 318°
2026-04-23 07:46 43.00755 15.98491 36201 ft 400 kts 318°
2026-04-23 07:47 43.04934 15.93476 36212 ft 399 kts 318°
2026-04-23 07:47 43.09107 15.88456 36213 ft 399 kts 318°
2026-04-23 07:48 43.13280 15.83434 36211 ft 400 kts 318°
2026-04-23 07:48 43.17427 15.78428 36209 ft 400 kts 318°
2026-04-23 07:49 43.21596 15.73368 36207 ft 401 kts 319°
2026-04-23 07:49 43.25776 15.68312 36206 ft 401 kts 319°
2026-04-23 07:50 43.29956 15.63243 36206 ft 401 kts 319°
2026-04-23 07:50 43.34142 15.58151 36199 ft 402 kts 319°
2026-04-23 07:51 43.38303 15.53085 36197 ft 403 kts 319°
2026-04-23 07:51 43.42493 15.47967 36197 ft 403 kts 319°
2026-04-23 07:52 43.46683 15.42836 36198 ft 403 kts 319°
2026-04-23 07:52 43.50877 15.37694 36202 ft 404 kts 319°
2026-04-23 07:53 43.55044 15.32574 36212 ft 404 kts 319°
2026-04-23 07:53 43.59240 15.27412 36228 ft 404 kts 319°
2026-04-23 07:54 43.63434 15.22244 36238 ft 404 kts 319°
2026-04-23 07:54 43.67626 15.17074 36248 ft 404 kts 318°
2026-04-23 07:55 43.71784 15.11926 36254 ft 404 kts 318°
2026-04-23 07:55 43.75963 15.06735 36257 ft 404 kts 318°
2026-04-23 07:56 43.80138 15.01543 36255 ft 404 kts 318°
2026-04-23 07:56 43.84317 14.96353 36256 ft 403 kts 318°
2026-04-23 07:57 43.88492 14.91153 36261 ft 403 kts 318°
2026-04-23 07:57 43.92627 14.85975 36265 ft 403 kts 318°
2026-04-23 07:58 43.96790 14.80763 36265 ft 403 kts 318°
2026-04-23 07:58 44.00954 14.75538 36266 ft 403 kts 318°
2026-04-23 07:59 44.05123 14.70294 36244 ft 405 kts 319°
2026-04-23 07:59 44.09286 14.65051 36237 ft 407 kts 319°
2026-04-23 08:00 44.13494 14.59751 36243 ft 409 kts 319°
2026-04-23 08:00 44.17703 14.54429 36256 ft 409 kts 319°
2026-04-23 08:01 44.21911 14.49096 36273 ft 409 kts 319°
2026-04-23 08:01 44.26085 14.43791 36279 ft 409 kts 319°
2026-04-23 08:02 44.30286 14.38445 36281 ft 408 kts 319°
2026-04-23 08:02 44.34475 14.33105 36279 ft 408 kts 319°
2026-04-23 08:03 44.38621 14.27701 36279 ft 408 kts 316°
2026-04-23 08:03 44.42568 14.22076 36280 ft 408 kts 315°
2026-04-23 08:04 44.46491 14.16332 36280 ft 408 kts 315°
2026-04-23 08:04 44.50438 14.10610 36284 ft 408 kts 315°
2026-04-23 08:05 44.54405 14.04915 36282 ft 408 kts 316°
2026-04-23 08:05 44.58348 13.99255 36282 ft 409 kts 316°
2026-04-23 08:06 44.62318 13.93536 36286 ft 409 kts 315°
2026-04-23 08:06 44.66287 13.87802 36287 ft 410 kts 316°
2026-04-23 08:07 44.70252 13.82051 36288 ft 410 kts 316°
2026-04-23 08:07 44.74220 13.76280 36286 ft 410 kts 316°
2026-04-23 08:08 44.78163 13.70543 36286 ft 411 kts 316°
2026-04-23 08:08 44.82142 13.64752 36285 ft 412 kts 316°
2026-04-23 08:09 44.86122 13.58947 36285 ft 412 kts 316°
2026-04-23 08:09 44.90095 13.53133 36283 ft 412 kts 316°
2026-04-23 08:10 44.94045 13.47330 36286 ft 413 kts 316°
2026-04-23 08:10 45.00020 13.38538 36288 ft 414 kts 316°
2026-04-23 08:11 45.04014 13.32642 36294 ft 416 kts 316°
2026-04-23 08:11 45.08007 13.26726 36299 ft 416 kts 316°
2026-04-23 08:12 45.11980 13.20842 36303 ft 417 kts 316°
2026-04-23 08:12 45.15984 13.14903 36305 ft 417 kts 316°
2026-04-23 08:13 45.19989 13.08949 36311 ft 418 kts 316°
2026-04-23 08:13 45.23992 13.02977 36307 ft 418 kts 316°
2026-04-23 08:14 45.27925 12.96979 36320 ft 419 kts 314°
2026-04-23 08:14 45.31695 12.90654 36310 ft 420 kts 312°
2026-04-23 08:15 45.35401 12.84243 36317 ft 420 kts 312°
2026-04-23 08:15 45.39135 12.77866 36318 ft 420 kts 313°
2026-04-23 08:16 45.42899 12.71516 36324 ft 420 kts 313°
2026-04-23 08:16 45.46633 12.65200 36309 ft 420 kts 313°
2026-04-23 08:17 45.50387 12.58822 36319 ft 420 kts 312°
2026-04-23 08:17 45.54134 12.52432 36319 ft 420 kts 313°
2026-04-23 08:18 45.57884 12.46015 36323 ft 421 kts 312°
2026-04-23 08:18 45.61603 12.39625 36323 ft 421 kts 312°
2026-04-23 08:19 45.65351 12.33188 36311 ft 422 kts 312°
2026-04-23 08:19 45.69099 12.26734 36309 ft 422 kts 312°
2026-04-23 08:20 45.72854 12.20269 36309 ft 423 kts 312°
2026-04-23 08:20 45.76582 12.13833 36308 ft 423 kts 312°
2026-04-23 08:21 45.80338 12.07337 36308 ft 423 kts 312°
2026-04-23 08:21 45.84084 12.00820 36305 ft 424 kts 312°
2026-04-23 08:22 45.87833 11.94293 36306 ft 424 kts 312°
2026-04-23 08:22 45.91586 11.87748 36313 ft 425 kts 312°
2026-04-23 08:23 45.95308 11.81232 36314 ft 424 kts 312°
2026-04-23 08:23 45.99046 11.74667 36309 ft 424 kts 312°
2026-04-23 08:24 46.02779 11.68103 36308 ft 424 kts 312°
2026-04-23 08:24 46.06517 11.61523 36300 ft 425 kts 312°
2026-04-23 08:25 46.10226 11.54977 36294 ft 425 kts 312°
2026-04-23 08:25 46.13961 11.48364 36299 ft 425 kts 311°
2026-04-23 08:26 46.17687 11.41738 36301 ft 426 kts 312°
2026-04-23 08:26 46.21419 11.35100 36321 ft 426 kts 312°
2026-04-23 08:27 46.25133 11.28498 36309 ft 426 kts 312°
2026-04-23 08:27 46.28866 11.21848 36306 ft 426 kts 311°
2026-04-23 08:28 46.32583 11.15175 36305 ft 426 kts 311°
2026-04-23 08:28 46.36296 11.08485 36320 ft 426 kts 311°
2026-04-23 08:29 46.40014 11.01799 36323 ft 426 kts 311°
2026-04-23 08:29 46.43733 10.95106 36314 ft 426 kts 311°
2026-04-23 08:30 46.47418 10.88440 36318 ft 427 kts 311°
2026-04-23 08:30 46.51124 10.81725 36318 ft 425 kts 311°
2026-04-23 08:31 46.54820 10.75016 36310 ft 425 kts 311°
2026-04-23 08:31 46.58511 10.68301 36317 ft 425 kts 311°
2026-04-23 08:32 46.62167 10.61619 36323 ft 425 kts 311°
2026-04-23 08:32 46.65840 10.54894 36324 ft 424 kts 311°
2026-04-23 08:33 46.69508 10.48154 36316 ft 425 kts 311°
2026-04-23 08:33 46.73121 10.41345 36318 ft 426 kts 305°
2026-04-23 08:34 46.75686 10.33571 36314 ft 430 kts 296°
2026-04-23 08:34 46.78000 10.25517 36315 ft 431 kts 296°
2026-04-23 08:35 46.80316 10.17458 36314 ft 431 kts 296°
2026-04-23 08:35 46.82626 10.09391 36311 ft 431 kts 296°
2026-04-23 08:36 46.84931 10.01309 36319 ft 432 kts 296°
2026-04-23 08:36 46.87224 9.93253 36333 ft 432 kts 296°
2026-04-23 08:37 46.89515 9.85153 36338 ft 431 kts 295°
2026-04-23 08:37 46.91804 9.77052 36345 ft 431 kts 295°
2026-04-23 08:38 46.94078 9.68940 36353 ft 430 kts 295°
2026-04-23 08:38 46.96331 9.60885 36354 ft 431 kts 295°
2026-04-23 08:39 46.98593 9.52775 36353 ft 430 kts 295°
2026-04-23 08:39 47.00860 9.44668 36354 ft 430 kts 295°
2026-04-23 08:40 47.03122 9.36552 36349 ft 430 kts 295°
2026-04-23 08:40 47.05357 9.28468 36350 ft 431 kts 295°
2026-04-23 08:41 47.07597 9.20324 36355 ft 430 kts 295°
2026-04-23 08:41 47.09832 9.12182 36359 ft 430 kts 295°
2026-04-23 08:42 47.12057 9.04028 36362 ft 430 kts 295°
2026-04-23 08:42 47.14256 8.95927 36366 ft 430 kts 295°
2026-04-23 08:43 47.16465 8.87769 36370 ft 429 kts 294°
2026-04-23 08:43 47.18581 8.79566 36371 ft 430 kts 294°
2026-04-23 08:44 47.20653 8.71316 36373 ft 430 kts 293°
2026-04-23 08:44 47.22721 8.63083 36371 ft 429 kts 293°
2026-04-23 08:45 47.24799 8.54846 36372 ft 429 kts 293°
2026-04-23 08:45 47.26875 8.46602 36371 ft 430 kts 293°
2026-04-23 08:46 47.28938 8.38409 36375 ft 430 kts 293°
2026-04-23 08:46 47.31015 8.30164 36379 ft 429 kts 293°
2026-04-23 08:47 47.33079 8.21902 36373 ft 429 kts 293°
2026-04-23 08:47 47.35123 8.13621 36373 ft 430 kts 293°
2026-04-23 08:48 47.37167 8.05326 36375 ft 430 kts 293°
2026-04-23 08:48 47.39219 7.97031 36375 ft 430 kts 293°
2026-04-23 08:49 47.41241 7.88799 36379 ft 430 kts 292°
2026-04-23 08:49 47.43263 7.80497 36376 ft 430 kts 292°
2026-04-23 08:50 47.45281 7.72192 36376 ft 429 kts 292°
2026-04-23 08:50 47.47113 7.63804 36371 ft 430 kts 287°
2026-04-23 08:51 47.48540 7.55285 36371 ft 430 kts 287°
2026-04-23 08:51 47.49978 7.46711 36374 ft 429 kts 287°
2026-04-23 08:52 47.51411 7.38145 36376 ft 429 kts 287°
2026-04-23 08:52 47.52827 7.29584 36378 ft 428 kts 287°
2026-04-23 08:53 47.54216 7.21076 36379 ft 428 kts 287°
2026-04-23 08:53 47.55612 7.12524 36381 ft 427 kts 287°
2026-04-23 08:54 47.57006 7.03984 36382 ft 426 kts 287°
2026-04-23 08:54 47.58401 6.95454 36384 ft 426 kts 287°
2026-04-23 08:55 47.59775 6.86935 36384 ft 425 kts 287°
2026-04-23 08:55 47.61128 6.78486 36383 ft 424 kts 287°
2026-04-23 08:56 47.62479 6.70000 36381 ft 422 kts 287°
2026-04-23 08:56 47.63820 6.61526 36377 ft 422 kts 287°
2026-04-23 08:57 47.65158 6.53034 36375 ft 423 kts 287°
2026-04-23 08:57 47.66487 6.44603 36378 ft 423 kts 287°
2026-04-23 08:58 47.67820 6.36107 36373 ft 423 kts 287°
2026-04-23 08:58 47.69163 6.27624 36372 ft 422 kts 288°
2026-04-23 08:59 47.70848 6.19312 36370 ft 420 kts 292°
2026-04-23 08:59 47.72712 6.11085 36371 ft 420 kts 292°
2026-04-23 09:00 47.74521 6.02880 36367 ft 421 kts 291°
2026-04-23 09:00 47.76266 5.94573 36367 ft 421 kts 291°
2026-04-23 09:01 47.77991 5.86249 36363 ft 421 kts 291°
2026-04-23 09:01 47.79721 5.77921 36359 ft 421 kts 291°
2026-04-23 09:02 47.81443 5.69652 36360 ft 421 kts 290°
2026-04-23 09:02 47.83172 5.61320 36358 ft 421 kts 290°
2026-04-23 09:03 47.84886 5.52996 36357 ft 420 kts 290°
2026-04-23 09:03 47.86593 5.44676 36356 ft 419 kts 290°
2026-04-23 09:04 47.88295 5.36374 36363 ft 419 kts 290°
2026-04-23 09:04 47.90026 5.28186 36362 ft 415 kts 296°
2026-04-23 09:05 47.93004 5.20997 36325 ft 404 kts 314°
2026-04-23 09:05 47.96788 5.14817 36318 ft 403 kts 314°
2026-04-23 09:06 48.00550 5.08602 36312 ft 403 kts 314°
2026-04-23 09:06 48.04287 5.02407 36295 ft 405 kts 314°
2026-04-23 09:07 48.08073 4.96140 36292 ft 407 kts 314°
2026-04-23 09:07 48.11875 4.89844 36301 ft 408 kts 314°
2026-04-23 09:08 48.15674 4.83516 36332 ft 408 kts 314°
2026-04-23 09:08 48.19469 4.77185 36350 ft 408 kts 314°
2026-04-23 09:09 48.23233 4.70887 36363 ft 408 kts 313°
2026-04-23 09:09 48.27003 4.64547 36370 ft 407 kts 313°
2026-04-23 09:10 48.32652 4.55047 36372 ft 406 kts 313°
2026-04-23 09:11 48.36377 4.48763 36375 ft 405 kts 313°
2026-04-23 09:11 48.40119 4.42433 36376 ft 404 kts 313°
2026-04-23 09:12 48.43850 4.36099 36375 ft 404 kts 313°
2026-04-23 09:12 48.47575 4.29763 36381 ft 404 kts 313°
2026-04-23 09:13 48.51272 4.23470 36384 ft 404 kts 313°
2026-04-23 09:13 48.54991 4.17133 36381 ft 403 kts 313°
2026-04-23 09:14 48.58704 4.10781 36384 ft 404 kts 313°
2026-04-23 09:14 48.62415 4.04406 36388 ft 404 kts 313°
2026-04-23 09:15 48.66100 3.98058 36388 ft 404 kts 313°
2026-04-23 09:15 48.69807 3.91666 36397 ft 404 kts 313°
2026-04-23 09:16 48.73533 3.85318 36396 ft 403 kts 315°
2026-04-23 09:16 48.77499 3.79333 36392 ft 402 kts 317°
2026-04-23 09:17 48.81561 3.73495 36393 ft 402 kts 317°
2026-04-23 09:17 48.85562 3.67638 36389 ft 403 kts 317°
2026-04-23 09:18 48.89556 3.61659 36390 ft 403 kts 316°
2026-04-23 09:18 48.93540 3.55648 36386 ft 404 kts 316°
2026-04-23 09:19 48.97532 3.49638 36382 ft 404 kts 316°
2026-04-23 09:19 49.01509 3.43654 36382 ft 405 kts 316°
2026-04-23 09:20 49.05516 3.37619 36385 ft 405 kts 316°